Time,TemperatureF,DewpointF,PressureIn,WindDirection,WindDirectionDegrees,WindSpeedMPH,WindSpeedGustMPH,Humidity,HourlyPrecipIn,Conditions,Clouds,dailyrainin,SoftwareType,DateUTC
2013-07-18 00:04:00,73.0,73.0,30.01,SSW,202,0.0,4.0,100,0.01,,,0.00,Weather View 32 v70,2013-07-18 04:04:00,
2013-07-18 00:09:00,72.0,72.0,30.01,WNW,292,0.0,4.0,100,0.01,,,0.00,Weather View 32 v70,2013-07-18 04:09:00,
2013-07-18 00:15:00,72.0,72.0,30.02,WNW,292,0.0,4.0,100,0.01,,,0.00,Weather View 32 v70,2013-07-18 04:15:00,
2013-07-18 00:24:00,72.0,72.0,30.02,WNW,292,1.0,4.0,100,0.01,,,0.00,Weather View 32 v70,2013-07-18 04:24:00,
2013-07-18 00:29:00,72.0,72.0,30.03,WNW,292,0.0,4.0,100,0.01,,,0.00,Weather View 32 v70,2013-07-18 04:29:00,
2013-07-18 00:40:00,72.0,72.0,30.03,WNW,292,1.0,3.0,100,0.01,,,0.00,Weather View 32 v70,2013-07-18 04:40:00,
2013-07-18 00:49:00,72.0,72.0,30.03,SW,225,1.0,3.0,100,0.00,,,0.00,Weather View 32 v70,2013-07-18 04:49:00,
2013-07-18 00:55:00,72.0,72.0,30.05,WNW,292,1.0,8.0,100,0.00,,,0.00,Weather View 32 v70,2013-07-18 04:55:00,
2013-07-18 01:04:00,72.0,72.0,30.04,SE,135,1.0,8.0,100,0.00,,,0.00,Weather View 32 v70,2013-07-18 05:04:00,
2013-07-18 01:10:00,72.0,72.0,30.03,West,270,1.0,8.0,100,0.00,,,0.00,Weather View 32 v70,2013-07-18 05:10:00,
2013-07-18 01:19:00,72.0,72.0,30.02,WNW,292,1.0,8.0,100,0.00,,,0.00,Weather View 32 v70,2013-07-18 05:19:00,
2013-07-18 01:29:00,72.0,72.0,30.01,WNW,292,1.0,8.0,100,0.00,,,0.00,Weather View 32 v70,2013-07-18 05:29:00,
2013-07-18 01:35:00,72.0,72.0,30.02,WSW,248,1.0,8.0,100,0.00,,,0.00,Weather View 32 v70,2013-07-18 05:35:00,
2013-07-18 01:42:00,72.0,72.0,30.01,South,180,1.0,8.0,100,0.00,,,0.00,Weather View 32 v70,2013-07-18 05:42:00,
2013-07-18 01:49:00,72.0,72.0,30.01,WNW,292,0.0,8.0,100,0.00,,,0.00,Weather View 32 v70,2013-07-18 05:49:00,
2013-07-18 01:59:00,72.0,72.0,30.00,WSW,248,1.0,5.0,100,0.00,,,0.00,Weather View 32 v70,2013-07-18 05:59:00,
2013-07-18 02:05:00,71.0,71.0,30.00,WSW,248,2.0,6.0,100,0.00,,,0.00,Weather View 32 v70,2013-07-18 06:05:00,
2013-07-18 02:14:00,72.0,72.0,30.00,SW,225,0.0,6.0,100,0.00,,,0.00,Weather View 32 v70,2013-07-18 06:14:00,
2013-07-18 02:25:00,72.0,72.0,29.99,West,270,0.0,6.0,100,0.00,,,0.00,Weather View 32 v70,2013-07-18 06:25:00,
2013-07-18 02:34:00,71.0,71.0,30.00,West,270,0.0,6.0,100,0.00,,,0.00,Weather View 32 v70,2013-07-18 06:34:00,
2013-07-18 02:40:00,71.0,71.0,29.99,West,270,1.0,6.0,100,0.00,,,0.00,Weather View 32 v70,2013-07-18 06:40:00,
2013-07-18 02:49:00,71.0,71.0,29.99,WNW,292,1.0,6.0,100,0.00,,,0.00,Weather View 32 v70,2013-07-18 06:49:00,
2013-07-18 02:55:00,71.0,71.0,29.99,WSW,248,1.0,6.0,100,0.00,,,0.00,Weather View 32 v70,2013-07-18 06:55:00,
2013-07-18 03:04:00,71.0,71.0,29.99,WSW,248,2.0,3.0,100,0.00,,,0.00,Weather View 32 v70,2013-07-18 07:04:00,
2013-07-18 03:15:00,71.0,71.0,29.99,South,180,1.0,3.0,100,0.00,,,0.00,Weather View 32 v70,2013-07-18 07:15:00,
2013-07-18 03:24:00,70.0,70.0,29.98,SW,225,0.0,3.0,100,0.00,,,0.00,Weather View 32 v70,2013-07-18 07:24:00,
2013-07-18 03:35:00,70.0,70.0,29.97,WNW,292,1.0,3.0,100,0.00,,,0.00,Weather View 32 v70,2013-07-18 07:35:00,
2013-07-18 03:43:00,70.0,70.0,29.98,WSW,248,1.0,3.0,100,0.00,,,0.00,Weather View 32 v70,2013-07-18 07:43:00,
2013-07-18 03:49:00,70.0,70.0,29.98,South,180,2.0,5.0,100,0.00,,,0.00,Weather View 32 v70,2013-07-18 07:49:00,
2013-07-18 03:59:00,70.0,70.0,29.98,WNW,292,1.0,5.0,100,0.00,,,0.00,Weather View 32 v70,2013-07-18 07:59:00,
2013-07-18 04:05:00,70.0,70.0,29.98,SE,135,1.0,5.0,100,0.00,,,0.00,Weather View 32 v70,2013-07-18 08:05:00,
2013-07-18 04:14:00,71.0,71.0,29.98,SSE,158,1.0,6.0,100,0.00,,,0.00,Weather View 32 v70,2013-07-18 08:14:00,
2013-07-18 04:25:00,71.0,71.0,29.98,South,180,1.0,6.0,100,0.00,,,0.00,Weather View 32 v70,2013-07-18 08:25:00,
2013-07-18 04:34:00,72.0,72.0,29.98,South,180,2.0,6.0,100,0.00,,,0.00,Weather View 32 v70,2013-07-18 08:34:00,
2013-07-18 04:39:00,72.0,72.0,29.98,WNW,292,1.0,7.0,100,0.00,,,0.00,Weather View 32 v70,2013-07-18 08:39:00,
2013-07-18 04:44:00,73.0,73.0,29.98,West,270,2.0,8.0,100,0.00,,,0.00,Weather View 32 v70,2013-07-18 08:44:00,
2013-07-18 04:49:00,73.0,73.0,29.98,SSE,158,1.0,8.0,100,0.00,,,0.00,Weather View 32 v70,2013-07-18 08:49:00,
2013-07-18 04:54:00,73.0,73.0,29.98,SW,225,2.0,8.0,100,0.00,,,0.00,Weather View 32 v70,2013-07-18 08:54:00,
2013-07-18 04:59:00,73.0,72.7,29.98,SSE,158,2.0,8.0,99,0.00,,,0.00,Weather View 32 v70,2013-07-18 08:59:00,
2013-07-18 05:05:00,73.0,72.1,29.99,SW,225,1.0,8.0,97,0.00,,,0.00,Weather View 32 v70,2013-07-18 09:05:00,
2013-07-18 05:09:00,73.0,72.4,29.98,WNW,292,1.0,8.0,98,0.00,,,0.00,Weather View 32 v70,2013-07-18 09:09:00,
2013-07-18 05:19:00,74.0,71.5,29.99,South,180,5.0,9.0,92,0.00,,,0.00,Weather View 32 v70,2013-07-18 09:19:00,
2013-07-18 05:24:00,74.0,71.8,30.00,South,180,1.0,9.0,93,0.00,,,0.00,Weather View 32 v70,2013-07-18 09:24:00,
2013-07-18 05:30:00,74.0,71.2,30.00,SE,135,1.0,9.0,91,0.00,,,0.00,Weather View 32 v70,2013-07-18 09:30:00,
2013-07-18 05:39:00,74.0,71.2,30.00,WNW,292,0.0,9.0,91,0.00,,,0.00,Weather View 32 v70,2013-07-18 09:39:00,
2013-07-18 05:45:00,74.0,70.9,30.00,WSW,248,3.0,9.0,90,0.00,,,0.00,Weather View 32 v70,2013-07-18 09:45:00,
2013-07-18 05:54:00,74.0,70.5,30.01,SE,135,3.0,9.0,89,0.00,,,0.00,Weather View 32 v70,2013-07-18 09:54:00,
2013-07-18 06:04:00,74.0,70.2,30.01,WSW,248,1.0,9.0,88,0.00,,,0.00,Weather View 32 v70,2013-07-18 10:04:00,
2013-07-18 06:10:00,74.0,70.2,30.01,SW,225,1.0,9.0,88,0.00,,,0.00,Weather View 32 v70,2013-07-18 10:10:00,
2013-07-18 06:19:00,74.0,70.2,30.01,SSW,202,2.0,9.0,88,0.00,,,0.00,Weather View 32 v70,2013-07-18 10:19:00,
2013-07-18 06:24:00,74.0,70.2,30.01,West,270,6.0,9.0,88,0.00,,,0.00,Weather View 32 v70,2013-07-18 10:24:00,
2013-07-18 06:35:00,74.0,70.2,30.01,West,270,2.0,9.0,88,0.00,,,0.00,Weather View 32 v70,2013-07-18 10:35:00,
2013-07-18 06:44:00,74.0,69.9,30.01,WNW,292,1.0,8.0,87,0.00,,,0.00,Weather View 32 v70,2013-07-18 10:44:00,
2013-07-18 06:50:00,75.0,70.8,30.01,SE,135,2.0,8.0,87,0.00,,,0.00,Weather View 32 v70,2013-07-18 10:50:00,
2013-07-18 06:59:00,75.0,70.5,30.01,SE,135,1.0,8.0,86,0.00,,,0.00,Weather View 32 v70,2013-07-18 10:59:00,
2013-07-18 07:04:00,75.0,70.5,30.01,South,180,1.0,8.0,86,0.00,,,0.00,Weather View 32 v70,2013-07-18 11:04:00,
2013-07-18 07:14:00,75.0,70.5,30.01,West,270,1.0,8.0,86,0.00,,,0.00,Weather View 32 v70,2013-07-18 11:14:00,
2013-07-18 07:20:00,75.0,70.5,30.01,West,270,2.0,8.0,86,0.00,,,0.00,Weather View 32 v70,2013-07-18 11:20:00,
2013-07-18 07:29:00,75.0,70.5,30.01,SE,135,2.0,8.0,86,0.00,,,0.00,Weather View 32 v70,2013-07-18 11:29:00,
2013-07-18 07:39:00,75.0,70.5,30.01,WSW,248,2.0,8.0,86,0.00,,,0.00,Weather View 32 v70,2013-07-18 11:39:00,
2013-07-18 07:45:00,76.0,70.8,30.02,WSW,248,3.0,10.0,84,0.00,,,0.00,Weather View 32 v70,2013-07-18 11:45:00,
2013-07-18 07:55:00,77.0,70.3,30.03,WSW,248,1.0,10.0,80,0.00,,,0.00,Weather View 32 v70,2013-07-18 11:55:00,
2013-07-18 08:04:00,78.0,70.9,30.02,SSW,202,3.0,10.0,79,0.00,,,0.00,Weather View 32 v70,2013-07-18 12:04:00,
2013-07-18 08:14:00,78.0,70.6,30.02,WSW,248,3.0,10.0,78,0.00,,,0.00,Weather View 32 v70,2013-07-18 12:14:00,
2013-07-18 08:20:00,78.0,70.2,30.02,WSW,248,1.0,10.0,77,0.00,,,0.00,Weather View 32 v70,2013-07-18 12:20:00,
2013-07-18 08:29:00,78.0,70.6,30.03,SSE,158,2.0,10.0,78,0.00,,,0.00,Weather View 32 v70,2013-07-18 12:29:00,
2013-07-18 08:39:00,78.0,70.6,30.02,SSE,158,2.0,10.0,78,0.00,,,0.00,Weather View 32 v70,2013-07-18 12:39:00,
2013-07-18 08:45:00,79.0,71.9,30.02,SW,225,2.0,8.0,79,0.00,,,0.00,Weather View 32 v70,2013-07-18 12:45:00,
2013-07-18 08:54:00,79.0,71.5,30.02,SW,225,2.0,7.0,78,0.00,,,0.00,Weather View 32 v70,2013-07-18 12:54:00,
2013-07-18 09:00:00,79.0,71.5,30.02,WNW,292,2.0,7.0,78,0.00,,,0.00,Weather View 32 v70,2013-07-18 13:00:00,
2013-07-18 09:09:00,80.0,70.9,30.02,South,180,1.0,7.0,74,0.00,,,0.00,Weather View 32 v70,2013-07-18 13:09:00,
2013-07-18 09:19:00,81.0,71.9,30.03,WSW,248,3.0,7.0,74,0.00,,,0.00,Weather View 32 v70,2013-07-18 13:19:00,
2013-07-18 09:29:00,81.0,71.9,30.03,South,180,1.0,7.0,74,0.00,,,0.00,Weather View 32 v70,2013-07-18 13:29:00,
2013-07-18 09:34:00,81.0,70.7,30.03,SE,135,1.0,7.0,71,0.00,,,0.00,Weather View 32 v70,2013-07-18 13:34:00,
2013-07-18 09:44:00,81.0,70.7,30.03,West,270,1.0,7.0,71,0.00,,,0.00,Weather View 32 v70,2013-07-18 13:44:00,
2013-07-18 09:49:00,81.0,69.8,30.03,West,270,0.0,7.0,69,0.00,,,0.00,Weather View 32 v70,2013-07-18 13:49:00,
2013-07-18 09:59:00,82.0,71.2,30.02,SW,225,3.0,7.0,70,0.00,,,0.00,Weather View 32 v70,2013-07-18 13:59:00,
2013-07-18 10:05:00,82.0,71.2,30.03,SSW,202,5.0,7.0,70,0.00,,,0.00,Weather View 32 v70,2013-07-18 14:05:00,
2013-07-18 10:14:00,82.0,71.2,30.03,WSW,248,1.0,7.0,70,0.00,,,0.00,Weather View 32 v70,2013-07-18 14:14:00,
2013-07-18 10:19:00,82.0,71.6,30.03,South,180,3.0,7.0,71,0.00,,,0.00,Weather View 32 v70,2013-07-18 14:19:00,
2013-07-18 10:30:00,83.0,70.9,30.02,WSW,248,1.0,7.0,67,0.00,,,0.00,Weather View 32 v70,2013-07-18 14:30:00,
2013-07-18 10:35:00,83.0,70.4,30.02,SE,135,1.0,7.0,66,0.00,,,0.00,Weather View 32 v70,2013-07-18 14:35:00,
2013-07-18 10:44:00,84.0,71.8,30.02,WSW,248,1.0,7.0,67,0.00,,,0.00,Weather View 32 v70,2013-07-18 14:44:00,
2013-07-18 10:50:00,84.0,71.8,30.02,SE,135,1.0,7.0,67,0.00,,,0.00,Weather View 32 v70,2013-07-18 14:50:00,
2013-07-18 10:59:00,84.0,72.3,30.03,SSE,158,1.0,6.0,68,0.00,,,0.00,Weather View 32 v70,2013-07-18 14:59:00,
2013-07-18 11:05:00,84.0,71.4,30.02,SSW,202,1.0,6.0,66,0.00,,,0.00,Weather View 32 v70,2013-07-18 15:05:00,
2013-07-18 11:14:00,84.0,71.4,30.02,South,180,2.0,6.0,66,0.00,,,0.00,Weather View 32 v70,2013-07-18 15:14:00,
2013-07-18 11:24:00,85.0,72.3,30.02,SSE,158,1.0,6.0,66,0.00,,,0.00,Weather View 32 v70,2013-07-18 15:24:00,
2013-07-18 11:30:00,85.0,73.2,30.01,SSE,158,2.0,6.0,68,0.00,,,0.00,Weather View 32 v70,2013-07-18 15:30:00,
2013-07-18 11:39:00,85.0,74.1,30.02,SE,135,1.0,6.0,70,0.00,,,0.00,Weather View 32 v70,2013-07-18 15:39:00,
2013-07-18 11:48:00,84.0,73.1,30.02,South,180,1.0,6.0,70,0.00,,,0.00,Weather View 32 v70,2013-07-18 15:48:00,
2013-07-18 11:54:00,85.0,74.1,30.02,SE,135,1.0,6.0,70,0.00,,,0.00,Weather View 32 v70,2013-07-18 15:54:00,
2013-07-18 12:04:00,84.0,72.7,30.02,SW,225,1.0,6.0,69,0.00,,,0.00,Weather View 32 v70,2013-07-18 16:04:00,
2013-07-18 12:10:00,84.0,72.7,30.02,SE,135,0.0,6.0,69,0.00,,,0.00,Weather View 32 v70,2013-07-18 16:10:00,
2013-07-18 12:19:00,85.0,74.1,30.02,West,270,1.0,6.0,70,0.00,,,0.00,Weather View 32 v70,2013-07-18 16:19:00,
2013-07-18 12:24:00,85.0,72.3,30.01,South,180,2.0,6.0,66,0.00,,,0.00,Weather View 32 v70,2013-07-18 16:24:00,
2013-07-18 12:35:00,86.0,72.8,30.01,South,180,2.0,3.0,65,0.00,,,0.00,Weather View 32 v70,2013-07-18 16:35:00,
2013-07-18 12:44:00,86.0,72.3,30.00,SSE,158,1.0,3.0,64,0.00,,,0.00,Weather View 32 v70,2013-07-18 16:44:00,
2013-07-18 12:50:00,87.0,74.2,30.00,WSW,248,1.0,3.0,66,0.00,,,0.00,Weather View 32 v70,2013-07-18 16:50:00,
2013-07-18 12:59:00,87.0,72.8,30.00,South,180,2.0,3.0,63,0.00,,,0.00,Weather View 32 v70,2013-07-18 16:59:00,
2013-07-18 13:09:00,87.0,73.3,30.00,SW,225,1.0,3.0,64,0.00,,,0.00,Weather View 32 v70,2013-07-18 17:09:00,
2013-07-18 13:15:00,87.0,72.3,30.00,SSE,158,1.0,3.0,62,0.00,,,0.00,Weather View 32 v70,2013-07-18 17:15:00,
2013-07-18 13:24:00,88.0,74.2,29.99,WSW,248,1.0,3.0,64,0.00,,,0.00,Weather View 32 v70,2013-07-18 17:24:00,
2013-07-18 13:34:00,87.0,73.8,30.00,WNW,292,1.0,3.0,65,0.00,,,0.00,Weather View 32 v70,2013-07-18 17:34:00,
2013-07-18 13:40:00,87.0,72.8,30.00,South,180,1.0,3.0,63,0.00,,,0.00,Weather View 32 v70,2013-07-18 17:40:00,
2013-07-18 13:45:00,87.0,72.8,30.00,South,180,1.0,3.0,63,0.00,,,0.00,Weather View 32 v70,2013-07-18 17:45:00,
2013-07-18 13:55:00,86.0,73.3,29.99,SSE,158,1.0,3.0,66,0.00,,,0.00,Weather View 32 v70,2013-07-18 17:55:00,
2013-07-18 14:04:00,86.0,73.3,30.00,WNW,292,0.0,3.0,66,0.00,,,0.00,Weather View 32 v70,2013-07-18 18:04:00,
2013-07-18 14:14:00,87.0,72.3,30.00,SSE,158,2.0,3.0,62,0.00,,,0.00,Weather View 32 v70,2013-07-18 18:14:00,
2013-07-18 14:25:00,86.0,72.3,29.99,WNW,292,0.0,3.0,64,0.00,,,0.00,Weather View 32 v70,2013-07-18 18:25:00,
2013-07-18 14:29:00,85.0,74.1,29.99,WNW,292,1.0,3.0,70,0.00,,,0.00,Weather View 32 v70,2013-07-18 18:29:00,
2013-07-18 14:39:00,87.0,74.2,29.98,South,180,1.0,3.0,66,0.00,,,0.00,Weather View 32 v70,2013-07-18 18:39:00,
2013-07-18 14:44:00,88.0,74.2,29.98,SSE,158,1.0,3.0,64,0.00,,,0.00,Weather View 32 v70,2013-07-18 18:44:00,
2013-07-18 14:50:00,86.0,73.7,29.97,West,270,1.0,3.0,67,0.00,,,0.00,Weather View 32 v70,2013-07-18 18:50:00,
2013-07-18 14:59:00,84.0,74.4,29.97,WSW,248,1.0,3.0,73,0.00,,,0.00,Weather View 32 v70,2013-07-18 18:59:00,
2013-07-18 15:05:00,85.0,75.7,29.97,WSW,248,1.0,3.0,74,0.00,,,0.00,Weather View 32 v70,2013-07-18 19:05:00,
2013-07-18 15:14:00,85.0,76.1,29.97,WNW,292,0.0,3.0,75,0.00,,,0.00,Weather View 32 v70,2013-07-18 19:14:00,
2013-07-18 15:25:00,84.0,77.1,29.96,WNW,292,1.0,3.0,80,0.00,,,0.00,Weather View 32 v70,2013-07-18 19:25:00,
2013-07-18 15:34:00,83.0,76.9,29.96,WSW,248,1.0,3.0,82,0.00,,,0.00,Weather View 32 v70,2013-07-18 19:34:00,
2013-07-18 15:44:00,81.0,75.7,29.96,WNW,292,1.0,2.0,84,0.00,,,0.00,Weather View 32 v70,2013-07-18 19:44:00,
2013-07-18 15:50:00,82.0,76.7,29.97,SW,225,3.0,5.0,84,0.00,,,0.00,Weather View 32 v70,2013-07-18 19:50:00,
2013-07-18 15:59:00,79.0,74.1,29.96,SW,225,1.0,18.0,85,0.05,,,0.05,Weather View 32 v70,2013-07-18 19:59:00,
2013-07-18 16:04:00,78.0,74.5,29.96,SW,225,0.0,18.0,89,0.05,,,0.05,Weather View 32 v70,2013-07-18 20:04:00,
2013-07-18 16:14:00,76.0,74.5,29.96,South,180,3.0,18.0,95,0.05,,,0.05,Weather View 32 v70,2013-07-18 20:14:00,
2013-07-18 16:24:00,76.0,76.0,29.97,West,270,1.0,18.0,100,0.05,,,0.05,Weather View 32 v70,2013-07-18 20:24:00,
2013-07-18 16:35:00,76.0,76.0,29.97,West,270,1.0,18.0,100,0.05,,,0.05,Weather View 32 v70,2013-07-18 20:35:00,
2013-07-18 16:44:00,76.0,76.0,29.96,SW,225,3.0,18.0,100,0.05,,,0.05,Weather View 32 v70,2013-07-18 20:44:00,
2013-07-18 16:51:00,76.0,76.0,29.96,WSW,248,1.0,18.0,100,0.05,,,0.05,Weather View 32 v70,2013-07-18 20:51:00,
2013-07-18 16:59:00,76.0,76.0,29.97,SE,135,2.0,4.0,100,0.00,,,0.05,Weather View 32 v70,2013-07-18 20:59:00,
2013-07-18 17:05:00,76.0,76.0,29.98,SSW,202,1.0,4.0,100,0.00,,,0.05,Weather View 32 v70,2013-07-18 21:05:00,
2013-07-18 17:14:00,77.0,76.1,29.99,SSE,158,1.0,4.0,97,0.00,,,0.05,Weather View 32 v70,2013-07-18 21:14:00,
2013-07-18 17:24:00,77.0,76.4,29.97,WSW,248,1.0,4.0,98,0.00,,,0.05,Weather View 32 v70,2013-07-18 21:24:00,
2013-07-18 17:30:00,77.0,76.4,29.97,SSW,202,3.0,4.0,98,0.00,,,0.05,Weather View 32 v70,2013-07-18 21:30:00,
2013-07-18 17:39:00,77.0,76.7,29.97,WSW,248,2.0,5.0,99,0.00,,,0.05,Weather View 32 v70,2013-07-18 21:39:00,
2013-07-18 17:49:00,77.0,76.1,29.97,SSE,158,4.0,6.0,97,0.00,,,0.05,Weather View 32 v70,2013-07-18 21:49:00,
2013-07-18 17:54:00,77.0,75.8,29.97,SSW,202,3.0,6.0,96,0.00,,,0.05,Weather View 32 v70,2013-07-18 21:54:00,
2013-07-18 18:04:00,77.0,75.1,29.97,SW,225,4.0,8.0,94,0.00,,,0.05,Weather View 32 v70,2013-07-18 22:04:00,
2013-07-18 18:10:00,77.0,75.1,29.97,South,180,5.0,8.0,94,0.00,,,0.05,Weather View 32 v70,2013-07-18 22:10:00,
2013-07-18 18:19:00,77.0,74.5,29.98,SW,225,3.0,8.0,92,0.00,,,0.05,Weather View 32 v70,2013-07-18 22:19:00,
2013-07-18 18:24:00,76.0,73.5,29.98,South,180,1.0,8.0,92,0.00,,,0.05,Weather View 32 v70,2013-07-18 22:24:00,
2013-07-18 18:35:00,76.0,74.1,29.99,SE,135,1.0,8.0,94,0.02,,,0.07,Weather View 32 v70,2013-07-18 22:35:00,
2013-07-18 18:44:00,75.0,74.1,30.00,SE,135,2.0,8.0,97,0.03,,,0.08,Weather View 32 v70,2013-07-18 22:44:00,
2013-07-18 18:49:00,75.0,74.7,29.99,WNW,292,0.0,8.0,99,0.03,,,0.08,Weather View 32 v70,2013-07-18 22:49:00,
2013-07-18 18:55:00,75.0,75.0,29.99,WNW,292,2.0,8.0,100,0.03,,,0.08,Weather View 32 v70,2013-07-18 22:55:00,
2013-07-18 18:59:00,75.0,75.0,29.99,SSW,202,1.0,8.0,100,0.03,,,0.08,Weather View 32 v70,2013-07-18 22:59:00,
2013-07-18 19:09:00,75.0,75.0,29.98,SW,225,1.0,8.0,100,0.03,,,0.08,Weather View 32 v70,2013-07-18 23:09:00,
2013-07-18 19:15:00,75.0,75.0,29.99,SSW,202,1.0,8.0,100,0.03,,,0.08,Weather View 32 v70,2013-07-18 23:15:00,
2013-07-18 19:24:00,75.0,75.0,29.98,SE,135,3.0,6.0,100,0.03,,,0.08,Weather View 32 v70,2013-07-18 23:24:00,
2013-07-18 19:29:00,75.0,75.0,29.98,SE,135,3.0,8.0,100,0.02,,,0.08,Weather View 32 v70,2013-07-18 23:29:00,
2013-07-18 19:40:00,75.0,75.0,29.99,SSW,202,3.0,9.0,100,0.00,,,0.08,Weather View 32 v70,2013-07-18 23:40:00,
2013-07-18 19:45:00,75.0,75.0,30.00,West,270,2.0,9.0,100,0.00,,,0.08,Weather View 32 v70,2013-07-18 23:45:00,
2013-07-18 19:53:00,74.0,74.0,30.00,WNW,292,1.0,9.0,100,0.00,,,0.08,Weather View 32 v70,2013-07-18 23:53:00,
2013-07-18 20:00:00,74.0,74.0,29.99,WNW,292,1.0,9.0,100,0.00,,,0.08,Weather View 32 v70,2013-07-19 00:00:00,
2013-07-18 20:09:00,73.0,73.0,29.97,WNW,292,0.0,9.0,100,0.00,,,0.08,Weather View 32 v70,2013-07-19 00:09:00,
2013-07-18 20:20:00,74.0,74.0,29.96,WNW,292,0.0,9.0,100,0.01,,,0.09,Weather View 32 v70,2013-07-19 00:20:00,
2013-07-18 20:25:00,73.0,73.0,29.96,SW,225,1.0,9.0,100,0.01,,,0.09,Weather View 32 v70,2013-07-19 00:25:00,
2013-07-18 20:29:00,73.0,73.0,29.97,WNW,292,1.0,9.0,100,0.01,,,0.09,Weather View 32 v70,2013-07-19 00:29:00,
2013-07-18 20:39:00,73.0,73.0,29.97,WNW,292,1.0,6.0,100,0.01,,,0.09,Weather View 32 v70,2013-07-19 00:39:00,
2013-07-18 20:44:00,73.0,73.0,29.98,WNW,292,0.0,4.0,100,0.01,,,0.09,Weather View 32 v70,2013-07-19 00:44:00,
2013-07-18 20:50:00,73.0,73.0,29.97,SSE,158,0.0,3.0,100,0.01,,,0.09,Weather View 32 v70,2013-07-19 00:50:00,
2013-07-18 20:59:00,73.0,73.0,29.98,SE,135,1.0,3.0,100,0.02,,,0.10,Weather View 32 v70,2013-07-19 00:59:00,
2013-07-18 21:05:00,73.0,73.0,29.98,SE,135,3.0,4.0,100,0.03,,,0.11,Weather View 32 v70,2013-07-19 01:05:00,
2013-07-18 21:14:00,74.0,74.0,29.98,West,270,1.0,5.0,100,0.02,,,0.11,Weather View 32 v70,2013-07-19 01:14:00,
2013-07-18 21:25:00,73.0,73.0,29.98,WSW,248,2.0,5.0,100,0.02,,,0.11,Weather View 32 v70,2013-07-19 01:25:00,
2013-07-18 21:34:00,73.0,73.0,29.97,WNW,292,1.0,5.0,100,0.02,,,0.11,Weather View 32 v70,2013-07-19 01:34:00,
2013-07-18 21:44:00,72.0,72.0,29.97,West,270,0.0,5.0,100,0.02,,,0.11,Weather View 32 v70,2013-07-19 01:44:00,
2013-07-18 21:54:00,72.0,72.0,29.96,West,270,0.0,5.0,100,0.02,,,0.11,Weather View 32 v70,2013-07-19 01:54:00,
2013-07-18 21:59:00,72.0,72.0,29.96,WNW,292,0.0,5.0,100,0.01,,,0.11,Weather View 32 v70,2013-07-19 01:59:00,
2013-07-18 22:05:00,73.0,73.0,29.96,WNW,292,1.0,5.0,100,0.00,,,0.11,Weather View 32 v70,2013-07-19 02:05:00,
2013-07-18 22:14:00,72.0,72.0,29.96,SW,225,1.0,5.0,100,0.00,,,0.11,Weather View 32 v70,2013-07-19 02:14:00,
2013-07-18 22:24:00,72.0,72.0,29.96,SE,135,0.0,3.0,100,0.00,,,0.11,Weather View 32 v70,2013-07-19 02:24:00,
2013-07-18 22:30:00,72.0,72.0,29.97,West,270,1.0,3.0,100,0.00,,,0.11,Weather View 32 v70,2013-07-19 02:30:00,
2013-07-18 22:39:00,72.0,72.0,29.97,WNW,292,0.0,3.0,100,0.00,,,0.11,Weather View 32 v70,2013-07-19 02:39:00,
2013-07-18 22:49:00,72.0,72.0,29.96,WSW,248,1.0,3.0,100,0.00,,,0.11,Weather View 32 v70,2013-07-19 02:49:00,
2013-07-18 22:55:00,72.0,72.0,29.96,West,270,1.0,3.0,100,0.00,,,0.11,Weather View 32 v70,2013-07-19 02:55:00,
2013-07-18 23:05:00,72.0,72.0,29.97,SW,225,0.0,3.0,100,0.00,,,0.11,Weather View 32 v70,2013-07-19 03:05:00,
2013-07-18 23:14:00,72.0,72.0,29.96,WSW,248,1.0,3.0,100,0.00,,,0.11,Weather View 32 v70,2013-07-19 03:14:00,
2013-07-18 23:25:00,72.0,72.0,29.96,SSW,202,0.0,3.0,100,0.00,,,0.11,Weather View 32 v70,2013-07-19 03:25:00,
2013-07-18 23:34:00,72.0,72.0,29.96,WSW,248,0.0,2.0,100,0.00,,,0.11,Weather View 32 v70,2013-07-19 03:34:00,
2013-07-18 23:41:00,72.0,72.0,29.96,WSW,248,0.0,2.0,100,0.00,,,0.11,Weather View 32 v70,2013-07-19 03:41:00,
2013-07-18 23:49:00,71.0,71.0,29.97,WNW,292,1.0,2.0,100,0.00,,,0.11,Weather View 32 v70,2013-07-19 03:49:00,